STARLINK-3572, 51879

Orbit data source: Space-Track

STARLINK-3572, 51879 is a payload satellite owned by SpaceX/Seattle (US) in LEO that was launched on Thu, 03 Mar 2022 UTC via an FALCON 9 launch vehicle from the Air Force Eastern Test Range (AFETR). Payload-class satellites include a variety of spacecraft equipped with specific instruments for various scientific and technological missions. These include communications satellites like Starlink; space stations such as the ISS; scientific satellites like the Hubble; Earth observation satellites from companies like Planet Labs, Umbra, and HawkEye 360; GPS; miniature CubeSats for education and research; and military/defense satellites.

Loading next visibility...
Identifier
51879, 2022-022AD
Orbit
LEO
Country
Flag of USUS
Related business
Manufacturer
SpaceX/Seattle
Mission
Operational Commercial Communications
Bus & Motor
STARLINK, Unknown motor
Mass
297 kg wet, ~275 kg dry
Launch date (UTC)
2022-03-03 (4 years ago)
Launch vehicle
FALCON 9
Launch site
Air Force Eastern Test Range (AFETR)
Object type
Payload
Rocket body
Debris
Shape & HBR
Box + 1 Pan, 10.1 m
Radar Cross Section
13.562 m², Large (>1 m²)

Expand to show TLE details & history
Last TLE update: 2 days ago

TLE from 2 days ago
0 STARLINK-3572
1 51879U 22022AD  26171.45303198  .00000322  00000-0  38335-4 0  9991
2 51879  53.1600 257.6812 0001118  90.6894 269.4226 15.08834953238768
Epoch: 2026-06-20T10:52Z
TLE epoch observation values (Epoch: 2026-06-20T10:52:21.963Z)
Latitude
0.00004°
Longitude
-174.07773°
Altitude
540.658 km
Speed
7.593 km/s
True Right ascension
17h 10m 43s
True Declination
0° 00' 00"
Sunlit
Object was in full shadow at epoch
Visualization orbit readout
Latitude
Unknown
Longitude
Unknown
Altitude
Unknown
Speed
Unknown
Apparent Right ascension
Unknown
Apparent Declination
Unknown
Sunlit
N/A
Visualization observer readout
Local Sidereal Time
21:32:42
Azimuth
Unknown
Elevation
Unknown
Doppler factor
Unknown
Orbital elements
Apogee altitude
540.786 km
Perigee altitude
539.239 km
Semi-major axis
6,918.15 km
Eccentricity
0.00011
Inclination
53.16°
RAAN
257.6812°
Arg. of periapsis
90.6894°
True anomaly
269.40979°
Mean anomaly
269.4226°
Eccentric anomaly
269.41619°
Mean motion
3.77188 °/min
Orbital period
95.44 mins
BSTAR
0.000038335
Loading maneuver chart data...
Computing Atmospheric mass density...
Loading historical data...
Loading historical data...
Loading historical data...
Loading historical data...
Loading historical data...
Loading historical data...
Loading historical data...

Documentation

Showing up to 5 results
|